TimeAKDT,TemperatureF,Dew PointF,Humidity,Sea Level PressureIn,VisibilityMPH,Wind Direction,Wind SpeedMPH,Gust SpeedMPH,PrecipitationIn,Events,Conditions,WindDirDegrees,DateUTC
12:16 AM,30.2,23.0,75,29.91,10.0,East,9.2,-,N/A,,Mostly Cloudy,80,2013-03-14 08:16:00
12:36 AM,30.2,21.2,69,29.90,10.0,ENE,9.2,-,N/A,,Partly Cloudy,70,2013-03-14 08:36:00
12:56 AM,30.2,23.0,75,29.90,10.0,East,9.2,-,N/A,,Clear,80,2013-03-14 08:56:00
1:16 AM,32.0,21.2,64,29.89,10.0,ENE,13.8,-,N/A,,Clear,70,2013-03-14 09:16:00
1:36 AM,30.2,21.2,69,29.90,10.0,East,10.4,-,N/A,,Clear,90,2013-03-14 09:36:00
1:56 AM,30.2,21.2,69,29.90,10.0,East,10.4,-,N/A,,Partly Cloudy,90,2013-03-14 09:56:00
2:16 AM,30.2,21.2,69,29.90,10.0,East,10.4,-,N/A,,Partly Cloudy,90,2013-03-14 10:16:00
2:36 AM,30.2,21.2,69,29.91,10.0,East,10.4,16.1,N/A,,Partly Cloudy,80,2013-03-14 10:36:00
2:56 AM,30.2,21.2,69,29.91,10.0,ENE,8.1,-,N/A,,Partly Cloudy,60,2013-03-14 10:56:00
3:16 AM,30.2,21.2,69,29.90,10.0,East,9.2,-,N/A,,Scattered Clouds,90,2013-03-14 11:16:00
3:36 AM,30.2,19.4,64,29.89,10.0,East,11.5,-,N/A,,Clear,80,2013-03-14 11:36:00
3:56 AM,30.2,19.4,64,29.88,10.0,ENE,9.2,-,N/A,,Mostly Cloudy,70,2013-03-14 11:56:00
4:16 AM,30.2,19.4,64,29.87,10.0,East,10.4,-,N/A,,Overcast,80,2013-03-14 12:16:00
4:36 AM,30.2,21.2,69,29.86,10.0,East,12.7,16.1,N/A,,Overcast,90,2013-03-14 12:36:00
4:56 AM,30.2,21.2,69,29.86,10.0,East,9.2,-,N/A,,Overcast,80,2013-03-14 12:56:00
5:16 AM,30.2,19.4,64,29.86,10.0,ENE,10.4,-,N/A,,Overcast,60,2013-03-14 13:16:00
5:36 AM,30.2,19.4,64,29.85,10.0,ESE,11.5,-,N/A,,Overcast,110,2013-03-14 13:36:00
5:56 AM,32.0,19.4,60,29.84,10.0,East,16.1,20.7,N/A,,Overcast,100,2013-03-14 13:56:00
6:16 AM,32.0,19.4,60,29.85,10.0,East,10.4,19.6,N/A,,Overcast,80,2013-03-14 14:16:00
6:36 AM,32.0,19.4,60,29.84,10.0,East,6.9,-,N/A,,Overcast,80,2013-03-14 14:36:00
6:56 AM,30.2,19.4,64,29.84,10.0,ESE,11.5,16.1,N/A,,Overcast,110,2013-03-14 14:56:00
7:16 AM,32.0,21.2,64,29.82,10.0,East,17.3,20.7,N/A,,Overcast,90,2013-03-14 15:16:00
7:36 AM,32.0,19.4,60,29.82,10.0,ESE,15.0,23.0,N/A,,Overcast,110,2013-03-14 15:36:00
7:56 AM,32.0,19.4,60,29.82,10.0,ESE,16.1,21.9,N/A,,Overcast,120,2013-03-14 15:56:00
8:16 AM,32.0,19.4,60,29.82,10.0,East,11.5,-,N/A,,Mostly Cloudy,100,2013-03-14 16:16:00
8:36 AM,32.0,19.4,60,29.83,10.0,East,10.4,-,N/A,,Mostly Cloudy,90,2013-03-14 16:36:00
8:56 AM,32.0,19.4,60,29.81,10.0,ESE,11.5,17.3,N/A,,Mostly Cloudy,110,2013-03-14 16:56:00
9:16 AM,32.0,19.4,60,29.82,10.0,NNE,4.6,-,N/A,,Mostly Cloudy,20,2013-03-14 17:16:00
9:36 AM,33.8,21.2,60,29.81,10.0,East,11.5,16.1,N/A,,Mostly Cloudy,80,2013-03-14 17:36:00
9:56 AM,33.8,21.2,60,29.81,10.0,ESE,9.2,-,N/A,,Mostly Cloudy,120,2013-03-14 17:56:00
10:16 AM,33.8,19.4,56,29.82,10.0,North,5.8,-,N/A,,Mostly Cloudy,10,2013-03-14 18:16:00
10:36 AM,32.0,19.4,60,29.81,10.0,North,4.6,-,N/A,,Mostly Cloudy,350,2013-03-14 18:36:00
10:56 AM,33.8,21.2,60,29.80,10.0,NE,8.1,-,N/A,,Mostly Cloudy,50,2013-03-14 18:56:00
11:16 AM,33.8,21.2,60,29.80,10.0,North,3.5,19.6,N/A,,Mostly Cloudy,360,2013-03-14 19:16:00
11:36 AM,33.8,19.4,56,29.79,10.0,North,5.8,-,N/A,,Mostly Cloudy,360,2013-03-14 19:36:00
11:56 AM,33.8,19.4,56,29.79,10.0,Calm,Calm,-,N/A,,Mostly Cloudy,0,2013-03-14 19:56:00
12:16 PM,35.6,21.2,56,29.79,10.0,North,4.6,-,N/A,,Mostly Cloudy,350,2013-03-14 20:16:00
12:36 PM,35.6,21.2,56,29.79,10.0,Calm,Calm,-,N/A,,Overcast,0,2013-03-14 20:36:00
12:56 PM,35.6,21.2,56,29.79,10.0,SW,3.5,-,N/A,,Overcast,230,2013-03-14 20:56:00
1:16 PM,35.6,21.2,56,29.78,10.0,Calm,Calm,-,N/A,,Overcast,0,2013-03-14 21:16:00
1:36 PM,35.6,21.2,56,29.78,10.0,West,3.5,-,N/A,,Overcast,280,2013-03-14 21:36:00
1:56 PM,35.6,21.2,56,29.78,10.0,Calm,Calm,-,N/A,,Overcast,0,2013-03-14 21:56:00
2:16 PM,35.6,21.2,56,29.77,10.0,NW,4.6,-,N/A,,Overcast,320,2013-03-14 22:16:00
2:36 PM,35.6,21.2,56,29.78,10.0,Calm,Calm,-,N/A,,Overcast,0,2013-03-14 22:36:00
2:56 PM,35.6,21.2,56,29.77,10.0,NW,3.5,-,N/A,,Overcast,320,2013-03-14 22:56:00
3:16 PM,35.6,21.2,56,29.77,10.0,East,5.8,-,N/A,,Overcast,90,2013-03-14 23:16:00
3:36 PM,35.6,23.0,60,29.77,10.0,East,10.4,-,N/A,,Overcast,100,2013-03-14 23:36:00
3:56 PM,35.6,23.0,60,29.77,10.0,East,10.4,-,N/A,,Overcast,100,2013-03-14 23:56:00
4:16 PM,35.6,21.2,56,29.77,10.0,East,9.2,-,N/A,,Overcast,90,2013-03-15 00:16:00
4:36 PM,35.6,23.0,60,29.77,10.0,East,9.2,-,N/A,,Overcast,100,2013-03-15 00:36:00
4:56 PM,35.6,21.2,56,29.77,10.0,East,9.2,-,N/A,,Overcast,100,2013-03-15 00:56:00
5:16 PM,35.6,21.2,56,29.77,10.0,East,12.7,18.4,N/A,,Overcast,80,2013-03-15 01:16:00
5:36 PM,35.6,21.2,56,29.77,10.0,East,13.8,-,N/A,,Overcast,90,2013-03-15 01:36:00
5:56 PM,35.6,21.2,56,29.77,10.0,East,10.4,-,N/A,,Overcast,80,2013-03-15 01:56:00
6:16 PM,35.6,21.2,56,29.78,10.0,East,13.8,18.4,N/A,,Overcast,90,2013-03-15 02:16:00
6:36 PM,35.6,21.2,56,29.78,10.0,ESE,9.2,-,N/A,,Overcast,110,2013-03-15 02:36:00
6:56 PM,35.6,21.2,56,29.79,10.0,ESE,8.1,-,N/A,,Overcast,110,2013-03-15 02:56:00
7:16 PM,35.6,21.2,56,29.79,10.0,East,11.5,17.3,N/A,,Overcast,100,2013-03-15 03:16:00
7:36 PM,35.6,21.2,56,29.80,10.0,East,9.2,-,N/A,,Overcast,100,2013-03-15 03:36:00
7:56 PM,35.6,21.2,56,29.80,10.0,East,9.2,-,N/A,,Overcast,90,2013-03-15 03:56:00
8:16 PM,35.6,21.2,56,29.81,10.0,East,11.5,-,N/A,,Overcast,90,2013-03-15 04:16:00
8:36 PM,35.6,21.2,56,29.81,10.0,East,12.7,-,N/A,,Overcast,90,2013-03-15 04:36:00
8:56 PM,35.6,21.2,56,29.83,10.0,East,11.5,-,N/A,,Overcast,90,2013-03-15 04:56:00
9:16 PM,35.6,21.2,56,29.83,10.0,East,10.4,-,N/A,,Overcast,90,2013-03-15 05:16:00
9:36 PM,35.6,21.2,56,29.84,10.0,ESE,8.1,-,N/A,,Overcast,110,2013-03-15 05:36:00
9:56 PM,35.6,21.2,56,29.84,10.0,East,12.7,-,N/A,,Overcast,100,2013-03-15 05:56:00
10:16 PM,35.6,21.2,56,29.85,10.0,East,11.5,-,N/A,,Overcast,100,2013-03-15 06:16:00
10:36 PM,35.6,21.2,56,29.85,10.0,ESE,11.5,-,N/A,,Overcast,110,2013-03-15 06:36:00
10:56 PM,35.6,21.2,56,29.86,10.0,East,10.4,-,N/A,,Overcast,100,2013-03-15 06:56:00
11:16 PM,35.6,21.2,56,29.86,10.0,ESE,10.4,-,N/A,,Overcast,110,2013-03-15 07:16:00
11:36 PM,35.6,21.2,56,29.87,10.0,East,11.5,-,N/A,,Overcast,90,2013-03-15 07:36:00
11:56 PM,33.8,21.2,60,29.88,9.0,ESE,10.4,-,N/A,,Overcast,110,2013-03-15 07:56:00